Location: Morlupo
(42.1333°N, 12.5000°E)
Time: 15:42:25
(UTC+00:00)

Cosmos 1536 Rocket - Pass Details

Date: 18 September 2020
Orbit: 606 x 632 km, 82.5° (Epoch: 26 October)

Event Time Altitude Azimuth Distance (km) Brightness Sun altitude
Rises 18:33:18 0° 359° (N) 2,914 7.2 -15.4°
Reaches altitude 10° 18:35:40 10° 7° (N) 2,007 6.3 -15.8°
Maximum altitude 18:39:51 40° 77° (ENE) 929 4.0 -16.5°
Enters shadow 18:41:15 31° 119° (ESE) 1,101 4.3 -16.8°
